Regional Weather Roundup
Issued by NWS Charleston, SC

Current Version | Previous Version | Graphics & Text | Print | Product List | Glossary On
Versions: 1 2 3 4 5 6 7 8 9 10 11 12 13 14 15 16 17 18 19 20 21 22 23 24 25 26 27 28 29 30 31 32 33 34 35 36 37 38 39 40 41 42 43 44 45 46 47 48 49 50
000
ASUS42 KCHS 271813
RWRCHS

REGIONAL WEATHER ROUNDUP
NATIONAL WEATHER SERVICE CHARLESTON SC
200 PM EDT WED JUL 27 2016

NOTE: "FAIR" INDICATES FEW OR NO CLOUDS BELOW 12,000 FEET WITH NO
SIGNIFICANT WEATHER AND/OR OBSTRUCTIONS TO VISIBILITY.

NOT ALL STATIONS ARE QUALITY CONTROLLED. USE DATA WITH CAUTION...
ESPECIALLY DEWPOINT OBSERVATIONS.

SCZ027-030-031-034>040-042>050-271900-
...SOUTHEAST SOUTH CAROLINA...

CITY           SKY/WX    TMP DP  RH WIND       PRES   REMARKS
N CHARLESTON   MOSUNNY   93  72  50 W9        30.02F HX 101
6HR MIN TEMP:  82; 6HR MAX TEMP:  95;

WATERFRONT PRK   N/A     91  74  57 VRB2      30.01F HX 100
MOUNT PLEASANT FAIR      93  73  52 S6        30.02F HX 102
JOHNS ISLAND   FAIR      93  77  59 S8        30.03F HX 107
PINOPOLIS        N/A     90  75  62 CALM      29.93F HX 100
MONCKS CORNER  FAIR      91  70  49 SW9       30.01F HX  97
SUMMERVILLE    FAIR      95  73  49 W3        30.03F HX 105
BEAUFORT MCAS  PTSUNNY   96  72  45 W10G18    30.04F HX 104
6HR MIN TEMP:  82; 6HR MAX TEMP:  98;

BEAUFORT ARPT  FAIR      93  73  52 W12       30.04S HX 102
HILTON HEAD IS MOSUNNY  N/A N/A N/A W7G14     30.05F
WALTERBORO     PTCLDY    95  72  46 W6        30.03F HX 103
ALLENDALE      FAIR      93  73  52 VRB5      30.03F HX 102

...SOUTHERN MIDLANDS AND PEE DEE...

CITY           SKY/WX    TMP DP  RH WIND       PRES   REMARKS
GEORGETOWN     FAIR      91  73  55 W8        30.02F HX 100
KINGSTREE      FAIR      93  72  49 W6        30.00F HX 100
ORANGEBURG     SUNNY     94  72  48 W8        30.02F HX 102
6HR MIN TEMP:  79; 6HR MAX TEMP:  94;

BARNWELL       NOT AVBL
AIKEN          FAIR      91  70  49 W8        30.06F HX  97
MANNING        FAIR      91  73  55 S9        30.00F HX 100
COLUMBIA       MOSUNNY   98  69  38 VRB6      29.98F HX 104
6HR MIN TEMP:  81; 6HR MAX TEMP: 101;

SUMTER         MOSUNNY   95  73  48 SW9       29.98F HAZE    HX 104
6HR MIN TEMP:  81; 6HR MAX TEMP:  95;

FLORENCE       SUNNY     96  73  47 SW12      29.99F HX 105
6HR MIN TEMP:  81; 6HR MAX TEMP:  96;

MYRTLE BEACH   MOSUNNY   93  73  52 S9        30.02F HX 102
N MYRTLE BEACH SUNNY     92  78  63 S15       29.99F HX 107
6HR MIN TEMP:  82; 6HR MAX TEMP:  95;


$$

GAZ063-065-086>088-099>101-113>116-118-119-134>141-150-271900-
...SOUTHEAST GEORGIA...

CITY           SKY/WX    TMP DP  RH WIND       PRES   REMARKS
SAVANNAH ARPT  MOSUNNY   94  71  47 W10G20    30.05F HX 101
6HR MIN TEMP:  79; 6HR MAX TEMP:  95;

HUNTER AAF     MOSUNNY   94  77  56 W9        30.03F HX 109
6HR MIN TEMP:  80; 6HR MAX TEMP:  94;

FORT STEWART   PTSUNNY   93  72  49 VRB7      30.03F HX 101
6HR MIN TEMP:  79; 6HR MAX TEMP:  93;

STATESBORO     MOSUNNY   93  75  57 W12       30.06F HX 104
SYLVANIA       NOT AVBL
CLAXTON        MOCLDY    93  73  52 SW5       30.05F HX 102

...CSRA...CENTRAL AND FAR SOUTHEAST GEORGIA...

CITY           SKY/WX    TMP DP  RH WIND       PRES   REMARKS
THOMSON        NOT AVBL
AUGUSTA-BUSH   PTSUNNY   96  70  42 W9        30.01F HX 102
6HR MIN TEMP:  79; 6HR MAX TEMP:  96;

AUGUSTA-DANIEL MOSUNNY   96  72  45 S8        30.03F HX 104
SWAINSBORO     MOCLDY    91  70  49 W7        30.06F HX  97
VIDALIA        PTSUNNY   95  68  41 W6        30.06F HX  99
EASTMAN        FAIR      91  60  34 W7        30.09F HX  90
HAZLEHURST     MOCLDY    94  73  51 SW5       30.06F HX 102
ALMA           MOSUNNY   93  71  48 SW10      30.07F HX 100
6HR MIN TEMP:  76; 6HR MAX TEMP:  94;

WAYCROSS       PTSUNNY   98  73  45 W13       30.07F HX 108
JESUP          FAIR      95  75  52 NW9G17    30.06F HX 107
BAXLEY         FAIR      95  75  52 W7        30.06F HX 107
BRUNSWICK      PTSUNNY   95  73  49 W5        30.07F HX 105
SAINT SIMONS   PTSUNNY   93  69  45 SW7       30.06F HX  98
6HR MIN TEMP:  81; 6HR MAX TEMP:  96;


$$

SCZ027-028-034-036>038-045-046-048>050-GAZ119-141-271900-
...LAKE AND SUPPLEMENTAL COASTAL OBSERVATIONS...

STATION/POSITION TIME  TEMP    WIND        PRES    WAVE   SWELL
                       AIR SEA DIR/SP/G            HT/PER HT/PER/DIR
                 (UTC) (F)     (DEG/KT/KT) (MB)    (FT/S) (FT/S/D)
WINYAH BAY       1645   91     270/  5     1016.0
LAKE MURRAY      1700   90     180/  4/  7 1015.6F
ACE BASIN NERRS  NOT AVBL
FORT PULASKI     1700   89 87  270/  9/ 11 1018.4F
SAPELO ISLAND    1700   91     240/  9     1018.0F

$$

ANZ835-935-AMZ111-154-330-350-352-354-370-450-454-472-271900-
...C-MAN AND BUOY OBSERVATIONS...

STATION/POSITION TIME  TEMP    WIND        PRES    WAVE   SWELL
                       AIR SEA DIR/SP/G            HT/PER HT/PER/DIR
                 (UTC) (F)     (DEG/KT/KT) (MB)    (FT/S) (FT/S/D)
BUOY 41004       1750   84 86  230/ 10/ 12 1016.9F   3/ 6   2/220/ 6
BUOY 41008       1750   85 87  200/ 10/ 12 1017.9F   1/ 4   2/160/ 5
FOLLY BEACH CMAN 1800   87     210/ 15/ 17 1017.2F
CAPERS NEARSHORE 1708   84 85  210/ 12/ 16 1017.2F
FRIPP NEARSHORE  1708   86 87  230/  8/ 10 1017.2F


STATION/POSITION TIME  TEMP    WIND        PRES    WAVE   SWELL
                       AIR SEA DIR/SP/G            HT/PER HT/PER/DIR
                 (UTC) (F)     (DEG/KT/KT) (MB)    (FT/S) (FT/S/D)
5E ST. MARYS GA  1701      88                N/A     1/ 4
FRYING PAN BUOY  1700   84 85  240/ 14/ 16 1016.4F
BUOY 41025       1750   84 85  250/  8/ 10 1014.6F   3/ 6   3/220/ 6
CAPE LOOKOUT NC  1700   86     240/ 12/ 15 1015.0S
BUOY 41002       1750   85 85  300/ 12/ 12 1017.8S   4/ 6   3/290/ 6
BUOY 41010       1720   85 87  220/  4/  6 1019.4F
ST AUGUSTINE FL  1800   84 86   90/  8/  9 1019.7F


$$



USA.gov is the U.S. government's official web portal to all federal, state and local government web resources and services.